Regional Weather Roundup
Issued by NWS

Home | Current Version | Previous Version | Graphics & Text | Print | Product List | Glossary On
Versions: 1 2 3 4 5 6 7 8 9 10 11 12 13 14 15 16 17 18 19 20 21 22 23 24 25 26 27 28 29 30 31 32 33 34 35 36 37 38 39 40 41 42 43 44 45 46 47 48 49 50
000
ASUS43 KIND 182009
RWRIN

WEATHER ROUNDUP FOR INDIANA
NATIONAL WEATHER SERVICE INDIANAPOLIS IN
300 PM EST THU DEC 18 2014

NOTE: "FAIR" INDICATES FEW OR NO CLOUDS BELOW 12,000 FEET WITH NO
SIGNIFICANT WEATHER AND/OR OBSTRUCTIONS TO VISIBILITY.

* - STATION DOES NOT REPORT WEATHER SUCH AS PRECIPITATION OR FOG.

+ - STATION NOT QUALITY CONTROLLED BY THE NATIONAL WEATHER SERVICE.
    USE DATA WITH CAUTION...ESPECIALLY DEWPOINT AND RELATIVE
    HUMIDITY OBSERVATIONS.

INZ001>003-010>013-019-020-182100-
NORTHWEST INDIANA

CITY           SKY/WX    TMP DP  RH WIND       PRES   REMARKS
GARY /AIRPORT/ CLOUDY    28  16  59 VRB6      30.24F WCI  22
KNOX *+        CLOUDY    28  17  64 SW6       30.22F WCI  21
LA PORTE +     CLOUDY    29  22  74 W5        30.22F WCI  24
MICHIGAN CITY+ CLOUDY    28  18  64 W5        30.23F WCI  23
MONTICELLO +   CLOUDY    26  20  77 W5        30.23F WCI  21
RENSSELAER +   CLOUDY    28  23  80 W5        30.23F WCI  23
VALPARAISO     CLOUDY    27  18  69 SW6       30.22F WCI  20

$$

LMZ046-743>745-182100-
SOUTHERN LAKE MICHIGAN

STATION/POSITION TIME  TEMP WIND        PRES
                       AIR  DIR/SP/G
                 (UTC) (F)  (DEG/KT/KT) (MB)

$$

INZ004-005-014>016-021>024-182100-
NORTH CENTRAL INDIANA

CITY           SKY/WX    TMP DP  RH WIND       PRES   REMARKS
GOSHEN         CLOUDY    27  22  81 W9        30.20F WCI  18
LOGANSPORT +   CLOUDY    27  19  74 W5        30.24S WCI  21
PERU/GRISSOM   CLOUDY    27  25  93 NW6       30.22S WCI  20
ROCHESTER +    CLOUDY    30  25  80 W7        30.23S WCI  23
SOUTH BEND     CLOUDY    28  22  78 SW7       30.22F WCI  21
WARSAW +       CLOUDY    28  21  74 W7        30.21F WCI  21

$$

INZ006>009-017-018-025>027-182100-
NORTHEAST INDIANA

CITY           SKY/WX    TMP DP  RH WIND       PRES   REMARKS
ANGOLA *+      CLOUDY    28  25  86 W6        30.18S WCI  22
AUBURN +       CLOUDY    30  23  74 W6        30.20F WCI  24
FORT WAYNE     CLOUDY    27  22  81 W8        30.21F WCI  19
HUNTINGTON +   LGT SNOW  26  22  88 W5        30.21F WCI  20

$$

INZ028-029-035-036-043>045-051>053-182100-
WEST CENTRAL INDIANA

CITY           SKY/WX    TMP DP  RH WIND       PRES   REMARKS
GREENCASTLE +  CLOUDY    28  19  69 CALM      30.22F
LAFAYETTE      CLOUDY    27  20  75 N6        30.23F WCI  20
TERRE HAUTE    CLOUDY    29  21  72 CALM      30.23F

$$

INZ030>032-037>040-046>048-054>057-064-065-182100-
CENTRAL INDIANA

CITY           SKY/WX    TMP DP  RH WIND       PRES   REMARKS
CP ATTERBURY + CLOUDY    30  21  69 MISG      30.22F
COLUMBUS       CLOUDY    28  23  80 CALM      30.23F
FRANKFORT +    CLOUDY    28  22  80 CALM      30.23F
GREENWOOD *+   CLOUDY    27  21  80 CALM      30.22F
INDIANAPOLIS   CLOUDY    27  20  75 NW3       30.21F
-EAGLE CREEK   CLOUDY    27  21  78 N3        30.21F
KOKOMO *+      CLOUDY    27  19  74 NW6       30.22F WCI  20
MARION +       CLOUDY    27  23  85 W5        30.21F WCI  21
MT COMFORT *+  CLOUDY    27  21  80 CALM      30.21F
SHELBYVILLE    FLURRIES  29  22  75 NW5       30.21F WCI  24
ZIONSVILLE +   CLOUDY    28  20  74 NW5       30.22S WCI  22

$$

INZ033-034-041-042-049-050-058-059-182100-
EAST CENTRAL INDIANA

CITY           SKY/WX    TMP DP  RH WIND       PRES   REMARKS
MUNCIE         CLOUDY    27  20  75 NW5       30.21F WCI  22

$$

INZ060-061-067>069-081>083-085>088-182100-
SOUTHWEST INDIANA

CITY           SKY/WX    TMP DP  RH WIND       PRES   REMARKS
EVANSVILLE     CLOUDY    34  25  69 CALM      30.24F
HUNTINGBURG *+ CLOUDY    34  23  64 N5        30.24F WCI  30
WASHINGTON +   CLOUDY    30  21  69 CALM      30.24F

$$

INZ062-063-066-070>080-084-089>092-182100-
SOUTH CENTRAL AND SOUTHEAST INDIANA

CITY           SKY/WX    TMP DP  RH WIND       PRES   REMARKS
BLOOMINGTON    CLOUDY    30  22  72 CALM      30.21F

$$



USA.gov is the U.S. government's official web portal to all federal, state and local government web resources and services.